Regional Weather Roundup
Issued by NWS

Home | Current Version | Previous Version | Graphics & Text | Print | Product List | Glossary On
Versions: 1 2 3 4 5 6 7 8 9 10 11 12 13 14 15 16 17 18 19 20 21 22 23 24 25 26 27 28 29 30 31 32 33 34 35 36 37 38 39 40 41 42 43 44 45 46 47 48 49 50
000
ASUS43 KLSX 092359
RWRMO

WEATHER SUMMARY FOR MISSOURI
NATIONAL WEATHER SERVICE SPRINGFIELD MO
700 PM CDT WED JUL 09 2014

NOTE: "FAIR" INDICATES FEW OR NO CLOUDS BELOW 12,000 FEET WITH NO
       SIGNIFICANT WEATHER AND/OR OBSTRUCTIONS TO VISIBILITY.
       CURRENT SKY AND/OR WEATHER CONDITIONS ARE NOT AVAILABLE FOR
       CHILLICOTHE AND FARMINGTON.

MOZ001>031-035>038-043-044-053-054-100100-
...NORTHERN AND WESTERN MISSOURI...

CITY           SKY/WX    TMP DP  RH WIND       PRES   REMARKS
KANSAS CTY INT MOSUNNY   80  58  46 NE8       30.01F
6HR MIN TEMP:  79; 6HR MAX TEMP:  84;

KANSAS C DTWN  MOSUNNY   82  60  47 NE9       29.99F
6HR MIN TEMP:  82; 6HR MAX TEMP:  85;

LEE`S SUMMIT   SUNNY     80  58  46 NE8       30.02F
6HR MIN TEMP:  80; 6HR MAX TEMP:  83;

ST JOSEPH      PTSUNNY   81  57  43 CALM      30.01F
6HR MIN TEMP:  79; 6HR MAX TEMP:  83;

CHILLICOTHE      N/A     80  59  48 NE5       30.03F
6HR MIN TEMP:  80; 6HR MAX TEMP:  83;

KIRKSVILLE     MOSUNNY   78  59  51 N5        30.05S
6HR MIN TEMP:  76; 6HR MAX TEMP:  81;


$$
MOZ066>068-077>081-088>096-101>105-100100-
...SOUTHWEST MISSOURI...

CITY           SKY/WX    TMP DP  RH WIND       PRES   REMARKS
SPRINGFIELD    SUNNY     81  59  47 N6        30.03F
6HR MIN TEMP:  81; 6HR MAX TEMP:  84;

JOPLIN         SUNNY     83  57  41 NE7       30.02F
6HR MIN TEMP:  83; 6HR MAX TEMP:  88;


$$
MOZ032>034-039>042-045>050-055>058-069>072-100100-
...CENTRAL MISSOURI...

CITY           SKY/WX    TMP DP  RH WIND       PRES   REMARKS
COLUMBIA       SUNNY     80  59  48 N7        30.03F
6HR MIN TEMP:  80; 6HR MAX TEMP:  84;

JEFFERSON CITY SUNNY     81  59  47 NW7       30.01S
6HR MIN TEMP:  81; 6HR MAX TEMP:  84;

ROLLA          SUNNY     79  59  50 NW7       30.01F
6HR MIN TEMP:  79; 6HR MAX TEMP:  84;

SEDALIA        SUNNY     78  63  59 N5        30.03F
6HR MIN TEMP:  78; 6HR MAX TEMP:  83;

OSAGE BEACH    SUNNY     79  63  57 N3        30.02S

$$
MOZ051-052-059>065-100100-
...EAST CENTRAL MISSOURI...

CITY           SKY/WX    TMP DP  RH WIND       PRES   REMARKS
ST LOUIS INTL  MOSUNNY   80  56  43 N10       30.01S
6HR MIN TEMP:  80; 6HR MAX TEMP:  87;

SPIRIT OF STL  SUNNY     81  57  43 N7        29.99S
6HR MIN TEMP:  81; 6HR MAX TEMP:  86;

ST CHARLES     SUNNY     78  58  49 N7        29.99F
6HR MIN TEMP:  78; 6HR MAX TEMP:  84;


$$
MOZ072>076-082>087-097>100-106>115-100100-
...SOUTH CENTRAL AND SOUTHEAST MISSOURI...

CITY           SKY/WX    TMP DP  RH WIND       PRES   REMARKS
CAPE GIRARDEAU MOSUNNY   84  63  49 W5        29.97S
6HR MIN TEMP:  84; 6HR MAX TEMP:  87;

FARMINGTON     SUNNY     81  61  50 NW5       30.02S
6HR MIN TEMP:  81; 6HR MAX TEMP:  82;

POPLAR BLUFF   SUNNY     84  61  45 NW6       29.98R
6HR MIN TEMP:  84; 6HR MAX TEMP:  87;

WEST PLAINS    PTSUNNY   81  61  50 N5        30.04F
6HR MIN TEMP:  79; 6HR MAX TEMP:  83;


$$


USA.gov is the U.S. government's official web portal to all federal, state and local government web resources and services.